Year,Month,Day,Hour,Minute,Value (Times are PST for temperature in C)
2018,08,09,00,00,22.70
2018,08,09,00,01,22.70
2018,08,09,00,02,22.80
2018,08,09,00,03,22.80
2018,08,09,00,04,22.80
2018,08,09,00,05,22.80
2018,08,09,00,06,22.80
2018,08,09,00,07,22.80
2018,08,09,00,08,22.80
2018,08,09,00,09,22.90
2018,08,09,00,10,22.90
2018,08,09,00,11,22.90
2018,08,09,00,12,23.00
2018,08,09,00,13,23.00
2018,08,09,00,14,23.00
2018,08,09,00,15,23.00
2018,08,09,00,16,23.00
2018,08,09,00,17,23.00
2018,08,09,00,18,23.00
2018,08,09,00,19,23.00
2018,08,09,00,20,23.00
2018,08,09,00,21,23.00
2018,08,09,00,22,23.00
2018,08,09,00,23,23.00
2018,08,09,00,24,22.90
2018,08,09,00,25,22.90
2018,08,09,00,26,22.90
2018,08,09,00,27,22.90
2018,08,09,00,28,22.90
2018,08,09,00,29,22.90
2018,08,09,00,30,22.90
2018,08,09,00,31,22.90
2018,08,09,00,32,22.90
2018,08,09,00,33,22.90
2018,08,09,00,34,22.90
2018,08,09,00,35,22.90
2018,08,09,00,36,22.90
2018,08,09,00,37,22.90
2018,08,09,00,38,22.90
2018,08,09,00,39,22.90
2018,08,09,00,40,22.90
2018,08,09,00,41,22.80
2018,08,09,00,42,22.80
2018,08,09,00,43,22.80
2018,08,09,00,44,22.80
2018,08,09,00,45,22.80
2018,08,09,00,46,22.80
2018,08,09,00,47,22.80
2018,08,09,00,48,22.80
2018,08,09,00,49,22.70
2018,08,09,00,50,22.70
2018,08,09,00,51,22.70
2018,08,09,00,52,22.70
2018,08,09,00,53,22.70
2018,08,09,00,54,22.70
2018,08,09,00,55,22.70
2018,08,09,00,56,22.70
2018,08,09,00,57,22.70
2018,08,09,00,58,22.70
2018,08,09,00,59,22.70
2018,08,09,01,00,22.70
2018,08,09,01,01,22.70
2018,08,09,01,02,22.70
2018,08,09,01,03,22.70
2018,08,09,01,04,22.70
2018,08,09,01,05,22.70
2018,08,09,01,06,22.70
2018,08,09,01,07,22.70
2018,08,09,01,08,22.70
2018,08,09,01,09,22.60
2018,08,09,01,10,22.60
2018,08,09,01,11,22.60
2018,08,09,01,12,22.60
2018,08,09,01,13,22.50
2018,08,09,01,14,22.50
2018,08,09,01,15,22.40
2018,08,09,01,16,22.40
2018,08,09,01,17,22.40
2018,08,09,01,18,22.40
2018,08,09,01,19,22.40
2018,08,09,01,20,22.30
2018,08,09,01,21,22.30
2018,08,09,01,22,22.30
2018,08,09,01,23,22.30
2018,08,09,01,24,22.20
2018,08,09,01,25,22.20
2018,08,09,01,26,22.20
2018,08,09,01,27,22.10
2018,08,09,01,28,22.10
2018,08,09,01,29,22.00
2018,08,09,01,30,22.00
2018,08,09,01,31,21.90
2018,08,09,01,32,21.90
2018,08,09,01,33,21.90
2018,08,09,01,34,21.80
2018,08,09,01,35,21.80
2018,08,09,01,36,21.80
2018,08,09,01,37,21.80
2018,08,09,01,38,21.70
2018,08,09,01,39,21.70
2018,08,09,01,40,21.60
2018,08,09,01,41,21.60
2018,08,09,01,42,21.60
2018,08,09,01,43,21.50
2018,08,09,01,44,21.40
2018,08,09,01,45,21.40
2018,08,09,01,46,21.40
2018,08,09,01,47,21.30
2018,08,09,01,48,21.30
2018,08,09,01,49,21.30
2018,08,09,01,50,21.30
2018,08,09,01,51,21.20
2018,08,09,01,52,21.20
2018,08,09,01,53,21.20
2018,08,09,01,54,21.20
2018,08,09,01,55,21.10
2018,08,09,01,56,21.10
2018,08,09,01,57,21.10
2018,08,09,01,58,21.10
2018,08,09,01,59,21.00
2018,08,09,02,00,21.00
2018,08,09,02,01,20.90
2018,08,09,02,02,20.90
2018,08,09,02,03,20.90
2018,08,09,02,04,20.80
2018,08,09,02,05,20.80
2018,08,09,02,06,20.80
2018,08,09,02,07,20.80
2018,08,09,02,08,20.70
2018,08,09,02,09,20.70
2018,08,09,02,10,20.70
2018,08,09,02,11,20.70
2018,08,09,02,12,20.70
2018,08,09,02,13,20.60
2018,08,09,02,14,20.60
2018,08,09,02,15,20.60
2018,08,09,02,16,20.60
2018,08,09,02,17,20.60
2018,08,09,02,18,20.60
2018,08,09,02,19,20.50
2018,08,09,02,20,20.50
2018,08,09,02,21,20.50
2018,08,09,02,22,20.50
2018,08,09,02,23,20.50
2018,08,09,02,24,20.50
2018,08,09,02,25,20.50
2018,08,09,02,26,20.50
2018,08,09,02,27,20.40
2018,08,09,02,28,20.40
2018,08,09,02,29,20.40
2018,08,09,02,30,20.40
2018,08,09,02,31,20.40
2018,08,09,02,32,20.40
2018,08,09,02,33,20.40
2018,08,09,02,34,20.30
2018,08,09,02,35,20.40
2018,08,09,02,36,20.30
2018,08,09,02,37,20.30
2018,08,09,02,38,20.30
2018,08,09,02,39,20.30
2018,08,09,02,40,20.30
2018,08,09,02,41,20.30
2018,08,09,02,42,20.30
2018,08,09,02,43,20.30
2018,08,09,02,44,20.30
2018,08,09,02,45,20.30
2018,08,09,02,46,20.20
2018,08,09,02,47,20.20
2018,08,09,02,48,20.20
2018,08,09,02,49,20.20
2018,08,09,02,50,20.20
2018,08,09,02,51,20.20
2018,08,09,02,52,20.20
2018,08,09,02,53,20.10
2018,08,09,02,54,20.10
2018,08,09,02,55,20.10
2018,08,09,02,56,20.10
2018,08,09,02,57,20.00
2018,08,09,02,58,20.00
2018,08,09,02,59,20.00
2018,08,09,03,00,20.00
2018,08,09,03,01,19.90
2018,08,09,03,02,19.90
2018,08,09,03,03,19.90
2018,08,09,03,04,19.90
2018,08,09,03,05,19.90
2018,08,09,03,06,20.00
2018,08,09,03,07,20.00
2018,08,09,03,08,20.00
2018,08,09,03,09,20.00
2018,08,09,03,10,20.00
2018,08,09,03,11,20.00
2018,08,09,03,12,20.00
2018,08,09,03,13,19.90
2018,08,09,03,14,19.90
2018,08,09,03,15,19.90
2018,08,09,03,16,19.90
2018,08,09,03,17,19.90
2018,08,09,03,18,19.90
2018,08,09,03,19,19.90
2018,08,09,03,20,19.90
2018,08,09,03,21,19.80
2018,08,09,03,22,19.80
2018,08,09,03,23,19.80
2018,08,09,03,24,19.80
2018,08,09,03,25,19.80
2018,08,09,03,26,19.80
2018,08,09,03,27,19.70
2018,08,09,03,28,19.70
2018,08,09,03,29,19.70
2018,08,09,03,30,19.70
2018,08,09,03,31,19.70
2018,08,09,03,32,19.70
2018,08,09,03,33,19.70
2018,08,09,03,34,19.70
2018,08,09,03,35,19.70
2018,08,09,03,36,19.60
2018,08,09,03,37,19.60
2018,08,09,03,38,19.60
2018,08,09,03,39,19.60
2018,08,09,03,40,19.60
2018,08,09,03,41,19.60
2018,08,09,03,42,19.60
2018,08,09,03,43,19.60
2018,08,09,03,44,19.60
2018,08,09,03,45,19.60
2018,08,09,03,46,19.60
2018,08,09,03,47,19.60
2018,08,09,03,48,19.60
2018,08,09,03,49,19.60
2018,08,09,03,50,19.60
2018,08,09,03,51,19.50
2018,08,09,03,52,19.50
2018,08,09,03,53,19.50
2018,08,09,03,54,19.50
2018,08,09,03,55,19.50
2018,08,09,03,56,19.40
2018,08,09,03,57,19.40
2018,08,09,03,58,19.40
2018,08,09,03,59,19.40
2018,08,09,04,00,19.40
2018,08,09,04,01,19.30
2018,08,09,04,02,19.30
2018,08,09,04,03,19.30
2018,08,09,04,04,19.30
2018,08,09,04,05,19.30
2018,08,09,04,06,19.20
2018,08,09,04,07,19.20
2018,08,09,04,08,19.20
2018,08,09,04,09,19.20
2018,08,09,04,10,19.10
2018,08,09,04,11,19.10
2018,08,09,04,12,19.10
2018,08,09,04,13,19.10
2018,08,09,04,14,19.10
2018,08,09,04,15,19.00
2018,08,09,04,16,19.00
2018,08,09,04,17,19.00
2018,08,09,04,18,18.90
2018,08,09,04,19,18.90
2018,08,09,04,20,18.90
2018,08,09,04,21,18.90
2018,08,09,04,22,18.90
2018,08,09,04,23,18.90
2018,08,09,04,24,18.80
2018,08,09,04,25,18.80
2018,08,09,04,26,18.80
2018,08,09,04,27,18.80
2018,08,09,04,28,18.80
2018,08,09,04,29,18.80
2018,08,09,04,30,18.80
2018,08,09,04,31,18.70
2018,08,09,04,32,18.70
2018,08,09,04,33,18.70
2018,08,09,04,34,18.60
2018,08,09,04,35,18.60
2018,08,09,04,36,18.60
2018,08,09,04,37,18.50
2018,08,09,04,38,18.50
2018,08,09,04,39,18.40
2018,08,09,04,40,18.40
2018,08,09,04,41,18.30
2018,08,09,04,42,18.30
2018,08,09,04,43,18.30
2018,08,09,04,44,18.30
2018,08,09,04,45,18.30
2018,08,09,04,46,18.20
2018,08,09,04,47,18.20
2018,08,09,04,48,18.20
2018,08,09,04,49,18.20
2018,08,09,04,50,18.10
2018,08,09,04,51,18.10
2018,08,09,04,52,18.10
2018,08,09,04,53,18.10
2018,08,09,04,54,18.10
2018,08,09,04,55,18.10
2018,08,09,04,56,18.10
2018,08,09,04,57,18.00
2018,08,09,04,58,18.00
2018,08,09,04,59,18.00
2018,08,09,05,00,18.00
2018,08,09,05,01,18.00
2018,08,09,05,02,17.90
2018,08,09,05,03,17.90
2018,08,09,05,04,17.90
2018,08,09,05,05,17.90
2018,08,09,05,06,17.90
2018,08,09,05,07,17.90
2018,08,09,05,08,17.90
2018,08,09,05,09,17.90
2018,08,09,05,10,17.90
2018,08,09,05,11,17.90
2018,08,09,05,12,17.90
2018,08,09,05,13,17.90
2018,08,09,05,14,17.90
2018,08,09,05,15,17.90
2018,08,09,05,16,17.90
2018,08,09,05,17,17.90
2018,08,09,05,18,17.90
2018,08,09,05,19,17.90
2018,08,09,05,20,17.90
2018,08,09,05,21,17.90
2018,08,09,05,22,17.90
2018,08,09,05,23,17.80
2018,08,09,05,24,17.80
2018,08,09,05,25,17.80
2018,08,09,05,26,17.80
2018,08,09,05,27,17.80
2018,08,09,05,28,17.80
2018,08,09,05,29,17.80
2018,08,09,05,30,17.80
2018,08,09,05,31,17.80
2018,08,09,05,32,17.80
2018,08,09,05,33,17.80
2018,08,09,05,34,17.80
2018,08,09,05,35,17.80
2018,08,09,05,36,17.80
2018,08,09,05,37,17.80
2018,08,09,05,38,17.80
2018,08,09,05,39,17.80
2018,08,09,05,40,17.80
2018,08,09,05,41,17.80
2018,08,09,05,42,17.80
2018,08,09,05,43,17.80
2018,08,09,05,44,17.70
2018,08,09,05,45,17.70
2018,08,09,05,46,17.70
2018,08,09,05,47,17.70
2018,08,09,05,48,17.70
2018,08,09,05,49,17.70
2018,08,09,05,50,17.70
2018,08,09,05,51,17.70
2018,08,09,05,52,17.70
2018,08,09,05,53,17.70
2018,08,09,05,54,17.70
2018,08,09,05,55,17.70
2018,08,09,05,56,17.70
2018,08,09,05,57,17.60
2018,08,09,05,58,17.60
2018,08,09,05,59,17.60
2018,08,09,06,00,17.60
2018,08,09,06,01,17.60
2018,08,09,06,02,17.60
2018,08,09,06,03,17.60
2018,08,09,06,04,17.60
2018,08,09,06,05,17.60
2018,08,09,06,06,17.60
2018,08,09,06,07,17.60
2018,08,09,06,08,17.70
2018,08,09,06,09,17.70
2018,08,09,06,10,17.70
2018,08,09,06,11,17.70
2018,08,09,06,12,17.80
2018,08,09,06,13,17.80
2018,08,09,06,14,17.80
2018,08,09,06,15,17.80
2018,08,09,06,16,17.80
2018,08,09,06,17,17.80
2018,08,09,06,18,17.90
2018,08,09,06,19,17.90
2018,08,09,06,20,17.90
2018,08,09,06,21,17.90
2018,08,09,06,22,17.90
2018,08,09,06,23,18.00
2018,08,09,06,24,18.00
2018,08,09,06,25,18.00
2018,08,09,06,26,18.10
2018,08,09,06,27,18.10
2018,08,09,06,28,18.00
2018,08,09,06,29,18.00
2018,08,09,06,30,18.00
2018,08,09,06,31,18.00
2018,08,09,06,32,18.00
2018,08,09,06,33,18.00
2018,08,09,06,34,18.00
2018,08,09,06,35,18.00
2018,08,09,06,36,17.90
2018,08,09,06,37,17.90
2018,08,09,06,38,17.90
2018,08,09,06,39,17.90
2018,08,09,06,40,17.90
2018,08,09,06,41,17.90
2018,08,09,06,42,17.90
2018,08,09,06,43,17.90
2018,08,09,06,44,17.90
2018,08,09,06,45,17.90
2018,08,09,06,46,17.90
2018,08,09,06,47,17.80
2018,08,09,06,48,17.80
2018,08,09,06,49,17.80
2018,08,09,06,50,17.90
2018,08,09,06,51,17.90
2018,08,09,06,52,17.90
2018,08,09,06,53,17.90
2018,08,09,06,54,17.90
2018,08,09,06,55,18.00
2018,08,09,06,56,18.00
2018,08,09,06,57,18.00
2018,08,09,06,58,18.00
2018,08,09,06,59,18.10
2018,08,09,07,00,18.10
2018,08,09,07,01,18.10
2018,08,09,07,02,18.10
2018,08,09,07,03,18.10
2018,08,09,07,04,18.20
2018,08,09,07,05,18.20
2018,08,09,07,06,18.20
2018,08,09,07,07,18.20
2018,08,09,07,08,18.20
2018,08,09,07,09,18.20
2018,08,09,07,10,18.20
2018,08,09,07,11,18.20
2018,08,09,07,12,18.30
2018,08,09,07,13,18.30
2018,08,09,07,14,18.30
2018,08,09,07,15,18.30
2018,08,09,07,16,18.40
2018,08,09,07,17,18.40
2018,08,09,07,18,18.50
2018,08,09,07,19,18.50
2018,08,09,07,20,18.60
2018,08,09,07,21,18.70
2018,08,09,07,22,18.70
2018,08,09,07,23,18.80
2018,08,09,07,24,18.90
2018,08,09,07,25,19.00
2018,08,09,07,26,19.10
2018,08,09,07,27,19.10
2018,08,09,07,28,19.10
2018,08,09,07,29,19.20
2018,08,09,07,30,19.20
2018,08,09,07,31,19.30
2018,08,09,07,32,19.30
2018,08,09,07,33,19.30
2018,08,09,07,34,19.30
2018,08,09,07,35,19.40
2018,08,09,07,36,19.40
2018,08,09,07,37,19.50
2018,08,09,07,38,19.60
2018,08,09,07,39,19.60
2018,08,09,07,40,19.70
2018,08,09,07,41,19.70
2018,08,09,07,42,19.80
2018,08,09,07,43,19.80
2018,08,09,07,44,19.90
2018,08,09,07,45,19.90
2018,08,09,07,46,20.00
2018,08,09,07,47,20.00
2018,08,09,07,48,20.10
2018,08,09,07,49,20.10
2018,08,09,07,50,20.20
2018,08,09,07,51,20.20
2018,08,09,07,52,20.30
2018,08,09,07,53,20.30
2018,08,09,07,54,20.40
2018,08,09,07,55,20.40
2018,08,09,07,56,20.40
2018,08,09,07,57,20.50
2018,08,09,07,58,20.50
2018,08,09,07,59,20.60
2018,08,09,08,00,20.60
2018,08,09,08,01,20.60
2018,08,09,08,02,20.70
2018,08,09,08,03,20.70
2018,08,09,08,04,20.70
2018,08,09,08,05,20.70
2018,08,09,08,06,20.70
2018,08,09,08,07,20.80
2018,08,09,08,08,20.80
2018,08,09,08,09,20.80
2018,08,09,08,10,20.80
2018,08,09,08,11,20.80
2018,08,09,08,12,20.80
2018,08,09,08,13,20.90
2018,08,09,08,14,20.90
2018,08,09,08,15,20.90
2018,08,09,08,16,20.90
2018,08,09,08,17,20.90
2018,08,09,08,18,20.90
2018,08,09,08,19,20.90
2018,08,09,08,20,20.90
2018,08,09,08,21,20.90
2018,08,09,08,22,20.90
2018,08,09,08,23,20.90
2018,08,09,08,24,20.90
2018,08,09,08,25,20.90
2018,08,09,08,26,21.00
2018,08,09,08,27,21.00
2018,08,09,08,28,21.00
2018,08,09,08,29,21.10
2018,08,09,08,30,21.10
2018,08,09,08,31,21.10
2018,08,09,08,32,21.20
2018,08,09,08,33,21.20
2018,08,09,08,34,21.20
2018,08,09,08,35,21.30
2018,08,09,08,36,21.30
2018,08,09,08,37,21.40
2018,08,09,08,38,21.40
2018,08,09,08,39,21.40
2018,08,09,08,40,21.50
2018,08,09,08,41,21.60
2018,08,09,08,42,21.60
2018,08,09,08,43,21.70
2018,08,09,08,44,21.70
2018,08,09,08,45,21.70
2018,08,09,08,46,21.80
2018,08,09,08,47,21.80
2018,08,09,08,48,21.90
2018,08,09,08,49,21.90
2018,08,09,08,50,22.00
2018,08,09,08,51,22.10
2018,08,09,08,52,22.10
2018,08,09,08,53,22.20
2018,08,09,08,54,22.20
2018,08,09,08,55,22.30
2018,08,09,08,56,22.30
2018,08,09,08,57,22.40
2018,08,09,08,58,22.40
2018,08,09,08,59,22.50
2018,08,09,09,00,22.40
2018,08,09,09,01,22.50
2018,08,09,09,02,22.50
2018,08,09,09,03,22.60
2018,08,09,09,04,22.60
2018,08,09,09,05,22.70
2018,08,09,09,06,22.70
2018,08,09,09,07,22.80
2018,08,09,09,08,22.80
2018,08,09,09,09,22.90
2018,08,09,09,10,23.00
2018,08,09,09,11,23.00
2018,08,09,09,12,23.10
2018,08,09,09,13,23.10
2018,08,09,09,14,23.20
2018,08,09,09,15,23.20
2018,08,09,09,16,23.30
2018,08,09,09,17,23.30
2018,08,09,09,18,23.30
2018,08,09,09,19,23.30
2018,08,09,09,20,23.30
2018,08,09,09,21,23.30
2018,08,09,09,22,23.40
2018,08,09,09,23,23.40
2018,08,09,09,24,23.50
2018,08,09,09,25,23.60
2018,08,09,09,26,23.70
2018,08,09,09,27,23.80
2018,08,09,09,28,23.90
2018,08,09,09,29,24.10
2018,08,09,09,30,24.20
2018,08,09,09,31,24.20
2018,08,09,09,32,24.20
2018,08,09,09,33,24.10
2018,08,09,09,34,24.00
2018,08,09,09,35,24.00
2018,08,09,09,36,23.90
2018,08,09,09,37,23.90
2018,08,09,09,38,23.90
2018,08,09,09,39,23.90
2018,08,09,09,40,24.00
2018,08,09,09,41,24.00
2018,08,09,09,42,24.10
2018,08,09,09,43,24.10
2018,08,09,09,44,24.00
2018,08,09,09,45,23.90
2018,08,09,09,46,23.80
2018,08,09,09,47,23.90
2018,08,09,09,48,23.90
2018,08,09,09,49,23.90
2018,08,09,09,50,23.80
2018,08,09,09,51,23.80
2018,08,09,09,52,23.90
2018,08,09,09,53,23.90
2018,08,09,09,54,24.00
2018,08,09,09,55,24.10
2018,08,09,09,56,24.20
2018,08,09,09,57,24.30
2018,08,09,09,58,24.40
2018,08,09,09,59,24.60
2018,08,09,10,00,24.70
2018,08,09,10,01,24.80
2018,08,09,10,02,24.70
2018,08,09,10,03,24.70
2018,08,09,10,04,24.70
2018,08,09,10,05,24.70
2018,08,09,10,06,24.70
2018,08,09,10,07,24.80
2018,08,09,10,08,24.70
2018,08,09,10,09,24.80
2018,08,09,10,10,24.80
2018,08,09,10,11,24.70
2018,08,09,10,12,24.70
2018,08,09,10,13,24.80
2018,08,09,10,14,24.80
2018,08,09,10,15,24.90
2018,08,09,10,16,24.90
2018,08,09,10,17,24.90
2018,08,09,10,18,25.00
2018,08,09,10,19,25.10
2018,08,09,10,20,25.00
2018,08,09,10,21,25.00
2018,08,09,10,22,25.00
2018,08,09,10,23,25.00
2018,08,09,10,24,25.00
2018,08,09,10,25,25.00
2018,08,09,10,26,25.10
2018,08,09,10,27,25.20
2018,08,09,10,28,25.30
2018,08,09,10,29,25.30
2018,08,09,10,30,25.30
2018,08,09,10,31,25.40
2018,08,09,10,32,25.40
2018,08,09,10,33,25.40
2018,08,09,10,34,25.50
2018,08,09,10,35,25.50
2018,08,09,10,36,25.50
2018,08,09,10,37,25.60
2018,08,09,10,38,25.50
2018,08,09,10,39,25.50
2018,08,09,10,40,25.60
2018,08,09,10,41,25.60
2018,08,09,10,42,25.60
2018,08,09,10,43,25.60
2018,08,09,10,44,25.50
2018,08,09,10,45,25.50
2018,08,09,10,46,25.50
2018,08,09,10,47,25.60
2018,08,09,10,48,25.50
2018,08,09,10,49,25.50
2018,08,09,10,50,25.50
2018,08,09,10,51,25.60
2018,08,09,10,52,25.60
2018,08,09,10,53,25.60
2018,08,09,10,54,25.50
2018,08,09,10,55,25.50
2018,08,09,10,56,25.60
2018,08,09,10,57,25.60
2018,08,09,10,58,25.60
2018,08,09,10,59,25.70
2018,08,09,11,00,25.80
2018,08,09,11,01,25.90
2018,08,09,11,02,26.00
2018,08,09,11,03,26.10
2018,08,09,11,04,26.20
2018,08,09,11,05,26.30
2018,08,09,11,06,26.50
2018,08,09,11,07,26.60
2018,08,09,11,08,26.70
2018,08,09,11,09,26.80
2018,08,09,11,10,26.80
2018,08,09,11,11,26.60
2018,08,09,11,12,26.60
2018,08,09,11,13,26.50
2018,08,09,11,14,26.50
2018,08,09,11,15,26.40
2018,08,09,11,16,26.40
2018,08,09,11,17,26.40
2018,08,09,11,18,26.50
2018,08,09,11,19,26.50
2018,08,09,11,20,26.50
2018,08,09,11,21,26.50
2018,08,09,11,22,26.40
2018,08,09,11,23,26.30
2018,08,09,11,24,26.20
2018,08,09,11,25,26.10
2018,08,09,11,26,26.10
2018,08,09,11,27,26.10
2018,08,09,11,28,26.00
2018,08,09,11,29,26.00
2018,08,09,11,30,26.00
2018,08,09,11,31,26.00
2018,08,09,11,32,26.00
2018,08,09,11,33,26.00
2018,08,09,11,34,26.10
2018,08,09,11,35,26.10
2018,08,09,11,36,26.10
2018,08,09,11,37,26.10
2018,08,09,11,38,26.10
2018,08,09,11,39,26.20
2018,08,09,11,40,26.30
2018,08,09,11,41,26.30
2018,08,09,11,42,26.30
2018,08,09,11,43,26.30
2018,08,09,11,44,26.40
2018,08,09,11,45,26.40
2018,08,09,11,46,26.40
2018,08,09,11,47,26.40
2018,08,09,11,48,26.40
2018,08,09,11,49,26.40
2018,08,09,11,50,26.40
2018,08,09,11,51,26.40
2018,08,09,11,52,26.40
2018,08,09,11,53,26.40
2018,08,09,11,54,26.40
2018,08,09,11,55,26.40
2018,08,09,11,56,26.40
2018,08,09,11,57,26.40
2018,08,09,11,58,26.50
2018,08,09,11,59,26.50
2018,08,09,12,00,26.50
2018,08,09,12,01,26.60
2018,08,09,12,02,26.70
2018,08,09,12,03,26.70
2018,08,09,12,04,26.80
2018,08,09,12,05,26.80
2018,08,09,12,06,26.80
2018,08,09,12,07,26.90
2018,08,09,12,08,26.90
2018,08,09,12,09,26.90
2018,08,09,12,10,27.10
2018,08,09,12,11,27.10
2018,08,09,12,12,27.30
2018,08,09,12,13,27.40
2018,08,09,12,14,27.60
2018,08,09,12,15,27.70
2018,08,09,12,16,27.90
2018,08,09,12,17,28.00
2018,08,09,12,18,28.10
2018,08,09,12,19,28.20
2018,08,09,12,20,28.20
2018,08,09,12,21,28.20
2018,08,09,12,22,28.20
2018,08,09,12,23,28.30
2018,08,09,12,24,28.30
2018,08,09,12,25,28.30
2018,08,09,12,26,28.30
2018,08,09,12,27,28.30
2018,08,09,12,28,28.30
2018,08,09,12,29,28.30
2018,08,09,12,30,28.20
2018,08,09,12,31,28.10
2018,08,09,12,32,28.10
2018,08,09,12,33,28.20
2018,08,09,12,34,28.30
2018,08,09,12,35,28.40
2018,08,09,12,36,28.40
2018,08,09,12,37,28.40
2018,08,09,12,38,28.40
2018,08,09,12,39,28.40
2018,08,09,12,40,28.50
2018,08,09,12,41,28.60
2018,08,09,12,42,28.70
2018,08,09,12,43,28.80
2018,08,09,12,44,28.80
2018,08,09,12,45,28.80
2018,08,09,12,46,28.80
2018,08,09,12,47,28.80
2018,08,09,12,48,28.70
2018,08,09,12,49,28.60
2018,08,09,12,50,28.60
2018,08,09,12,51,28.60
2018,08,09,12,52,28.60
2018,08,09,12,53,28.60
2018,08,09,12,54,28.50
2018,08,09,12,55,28.50
2018,08,09,12,56,28.40
2018,08,09,12,57,28.30
2018,08,09,12,58,28.30
2018,08,09,12,59,28.20
2018,08,09,13,00,28.20
2018,08,09,13,01,28.20
2018,08,09,13,02,28.20
2018,08,09,13,03,28.10
2018,08,09,13,04,28.10
2018,08,09,13,05,28.10
2018,08,09,13,06,28.20
2018,08,09,13,07,28.30
2018,08,09,13,08,28.40
2018,08,09,13,09,28.30
2018,08,09,13,10,28.30
2018,08,09,13,11,28.20
2018,08,09,13,12,28.20
2018,08,09,13,13,28.10
2018,08,09,13,14,28.10
2018,08,09,13,15,28.10
2018,08,09,13,16,28.10
2018,08,09,13,17,28.10
2018,08,09,13,18,28.00
2018,08,09,13,19,28.10
2018,08,09,13,20,28.20
2018,08,09,13,21,28.30
2018,08,09,13,22,28.40
2018,08,09,13,23,28.50
2018,08,09,13,24,28.60
2018,08,09,13,25,28.60
2018,08,09,13,26,28.70
2018,08,09,13,27,28.70
2018,08,09,13,28,28.80
2018,08,09,13,29,28.80
2018,08,09,13,30,28.80
2018,08,09,13,31,28.70
2018,08,09,13,32,28.70
2018,08,09,13,33,28.70
2018,08,09,13,34,28.70
2018,08,09,13,35,28.70
2018,08,09,13,36,28.70
2018,08,09,13,37,28.70
2018,08,09,13,38,28.80
2018,08,09,13,39,28.80
2018,08,09,13,40,28.90
2018,08,09,13,41,28.90
2018,08,09,13,42,29.00
2018,08,09,13,43,29.10
2018,08,09,13,44,29.10
2018,08,09,13,45,29.10
2018,08,09,13,46,29.10
2018,08,09,13,47,29.00
2018,08,09,13,48,29.10
2018,08,09,13,49,29.10
2018,08,09,13,50,29.10
2018,08,09,13,51,29.10
2018,08,09,13,52,29.00
2018,08,09,13,53,29.00
2018,08,09,13,54,28.90
2018,08,09,13,55,28.90
2018,08,09,13,56,28.90
2018,08,09,13,57,29.00
2018,08,09,13,58,29.00
2018,08,09,13,59,29.10
2018,08,09,14,00,29.10
2018,08,09,14,01,29.10
2018,08,09,14,02,29.20
2018,08,09,14,03,29.20
2018,08,09,14,04,29.00
2018,08,09,14,05,28.90
2018,08,09,14,06,28.70
2018,08,09,14,07,28.50
2018,08,09,14,08,28.40
2018,08,09,14,09,28.30
2018,08,09,14,10,28.30
2018,08,09,14,11,28.30
2018,08,09,14,12,28.30
2018,08,09,14,13,28.20
2018,08,09,14,14,28.20
2018,08,09,14,15,28.10
2018,08,09,14,16,28.00
2018,08,09,14,17,28.00
2018,08,09,14,18,27.90
2018,08,09,14,19,28.00
2018,08,09,14,20,28.10
2018,08,09,14,21,28.20
2018,08,09,14,22,28.30
2018,08,09,14,23,28.40
2018,08,09,14,24,28.50
2018,08,09,14,25,28.50
2018,08,09,14,26,28.50
2018,08,09,14,27,28.40
2018,08,09,14,28,28.40
2018,08,09,14,29,28.30
2018,08,09,14,30,28.30
2018,08,09,14,31,28.30
2018,08,09,14,32,28.40
2018,08,09,14,33,28.40
2018,08,09,14,34,28.40
2018,08,09,14,35,28.30
2018,08,09,14,36,28.20
2018,08,09,14,37,28.20
2018,08,09,14,38,28.20
2018,08,09,14,39,28.20
2018,08,09,14,40,28.20
2018,08,09,14,41,28.20
2018,08,09,14,42,28.20
2018,08,09,14,43,28.20
2018,08,09,14,44,28.20
2018,08,09,14,45,28.30
2018,08,09,14,46,28.40
2018,08,09,14,47,28.40
2018,08,09,14,48,28.50
2018,08,09,14,49,28.50
2018,08,09,14,50,28.60
2018,08,09,14,51,28.60
2018,08,09,14,52,28.60
2018,08,09,14,53,28.50
2018,08,09,14,54,28.50
2018,08,09,14,55,28.50
2018,08,09,14,56,28.60
2018,08,09,14,57,28.60
2018,08,09,14,58,28.70
2018,08,09,14,59,28.80
2018,08,09,15,00,28.80
2018,08,09,15,01,28.80
2018,08,09,15,02,28.70
2018,08,09,15,03,28.60
2018,08,09,15,04,28.60
2018,08,09,15,05,28.70
2018,08,09,15,06,28.80
2018,08,09,15,07,28.80
2018,08,09,15,08,28.90
2018,08,09,15,09,28.90
2018,08,09,15,10,29.00
2018,08,09,15,11,29.10
2018,08,09,15,12,29.10
2018,08,09,15,13,29.20
2018,08,09,15,14,29.30
2018,08,09,15,15,29.30
2018,08,09,15,16,29.40
2018,08,09,15,17,29.40
2018,08,09,15,18,29.40
2018,08,09,15,19,29.40
2018,08,09,15,20,29.40
2018,08,09,15,21,29.30
2018,08,09,15,22,29.30
2018,08,09,15,23,29.30
2018,08,09,15,24,29.30
2018,08,09,15,25,29.30
2018,08,09,15,26,29.30
2018,08,09,15,27,29.30
2018,08,09,15,28,29.30
2018,08,09,15,29,29.20
2018,08,09,15,30,29.30
2018,08,09,15,31,29.30
2018,08,09,15,32,29.30
2018,08,09,15,33,29.30
2018,08,09,15,34,29.40
2018,08,09,15,35,29.40
2018,08,09,15,36,29.50
2018,08,09,15,37,29.50
2018,08,09,15,38,29.50
2018,08,09,15,39,29.50
2018,08,09,15,40,29.50
2018,08,09,15,41,29.60
2018,08,09,15,42,29.70
2018,08,09,15,43,29.80
2018,08,09,15,44,29.90
2018,08,09,15,45,29.90
2018,08,09,15,46,30.00
2018,08,09,15,47,30.00
2018,08,09,15,48,30.00
2018,08,09,15,49,30.10
2018,08,09,15,50,30.10
2018,08,09,15,51,30.20
2018,08,09,15,52,30.20
2018,08,09,15,53,30.20
2018,08,09,15,54,30.20
2018,08,09,15,55,30.10
2018,08,09,15,56,30.10
2018,08,09,15,57,30.10
2018,08,09,15,58,30.20
2018,08,09,15,59,30.10
2018,08,09,16,00,30.10
2018,08,09,16,01,30.10
2018,08,09,16,02,30.10
2018,08,09,16,03,30.10
2018,08,09,16,04,30.10
2018,08,09,16,05,30.10
2018,08,09,16,06,30.10
2018,08,09,16,07,30.10
2018,08,09,16,08,30.10
2018,08,09,16,09,30.10
2018,08,09,16,10,30.00
2018,08,09,16,11,29.90
2018,08,09,16,12,29.90
2018,08,09,16,13,29.90
2018,08,09,16,14,30.00
2018,08,09,16,15,30.00
2018,08,09,16,16,30.10
2018,08,09,16,17,30.10
2018,08,09,16,18,30.10
2018,08,09,16,19,30.10
2018,08,09,16,20,30.10
2018,08,09,16,21,30.00
2018,08,09,16,22,30.00
2018,08,09,16,23,29.90
2018,08,09,16,24,29.90
2018,08,09,16,25,29.90
2018,08,09,16,26,29.80
2018,08,09,16,27,29.80
2018,08,09,16,28,29.70
2018,08,09,16,29,29.70
2018,08,09,16,30,29.60
2018,08,09,16,31,29.60
2018,08,09,16,32,29.60
2018,08,09,16,33,29.60
2018,08,09,16,34,29.60
2018,08,09,16,35,29.60
2018,08,09,16,36,29.50
2018,08,09,16,37,29.50
2018,08,09,16,38,29.60
2018,08,09,16,39,29.70
2018,08,09,16,40,29.70
2018,08,09,16,41,29.80
2018,08,09,16,42,29.90
2018,08,09,16,43,30.00
2018,08,09,16,44,30.10
2018,08,09,16,45,30.20
2018,08,09,16,46,30.20
2018,08,09,16,47,30.30
2018,08,09,16,48,30.40
2018,08,09,16,49,30.50
2018,08,09,16,50,30.50
2018,08,09,16,51,30.50
2018,08,09,16,52,30.40
2018,08,09,16,53,30.40
2018,08,09,16,54,30.40
2018,08,09,16,55,30.40
2018,08,09,16,56,30.30
2018,08,09,16,57,30.30
2018,08,09,16,58,30.30
2018,08,09,16,59,30.30
2018,08,09,17,00,30.30
2018,08,09,17,01,30.40
2018,08,09,17,02,30.40
2018,08,09,17,03,30.40
2018,08,09,17,04,30.40
2018,08,09,17,05,30.40
2018,08,09,17,06,30.40
2018,08,09,17,07,30.40
2018,08,09,17,08,30.40
2018,08,09,17,09,30.40
2018,08,09,17,10,30.40
2018,08,09,17,11,30.40
2018,08,09,17,12,30.40
2018,08,09,17,13,30.40
2018,08,09,17,14,30.40
2018,08,09,17,15,30.40
2018,08,09,17,16,30.40
2018,08,09,17,17,30.40
2018,08,09,17,18,30.40
2018,08,09,17,19,30.40